Tracking 19969 objects as of 12-Nov-2019
Live streaming from Space Station
objects crossing your sky now
Track the group of recently launched Starlink satellites

COSMOS 2251 DEB

Track COSMOS 2251 DEB now!
10-day predictions


NORAD ID: 34989
Int'l Code: 1993-036AFM
Perigee: 694.6 km
Apogee: 739.4 km
Inclination: 74.0 °
Period: 99.0 minutes
Semi major axis: 7087 km
RCS: 0.05 m2 (small)
Launch date: June 16, 1993
Source: Commonwealth of Independent States (former USSR) (CIS)
Launch site: PLESETSK MISSILE AND SPACE COMPLEX (PKMTR)

Note: This is SATELLITE DEBRIS
aabbcc
Your satellite tracking list
Your tracking list is empty




NASA's NSSDC Master Catalog

Two Line Element Set (TLE):
1 34989U 93036AFM 19316.42566531  .00000685  00000-0  16524-3 0  9996
2 34989  74.0222 227.2007 0031602 195.6357 164.3833 14.54849550555277
Source of the keplerian elements: AFSPC